Tracking 25193 objects as of 17-Jan-2022
HD Live streaming from Space Station
objects crossing your sky now

TVSAT 2

Track TVSAT 2 now!
TVSAT 2 is classified as:


NORAD ID: 20168
Int'l Code: 1989-062A
Perigee: 35,906.3 km
Apogee: 35,914.8 km
Inclination: 14.7 °
Period: 1,442.1 minutes
Semi major axis: 42281 km
RCS: 2.0976 m2 (large)
Launch date: August 8, 1989
Source: Germany (GER)
Launch site: FRENCH GUIANA (FRGUI)
aabbcc
Your satellite tracking list
Your tracking list is empty




NASA's NSSDC Master Catalog

Two Line Element Set (TLE):
1 20168U 89062A   22016.90145262 -.00000278  00000-0  00000-0 0  9990
2 20168  14.7011   8.1839 0000997 125.8842  96.7320  0.99856592118401
Source of the keplerian elements: AFSPC